Union Aéronautique de la Côte d'Azur

Union Aéronautique de la Côte d'Azur
UACA
Approuvé A.T.O. EASA – N°FR.ATO.0108

UNION des aéroclubs
Cannes “Ailes d’Azur”, Nice “Côte d’Azur”, Grasse “St Exupery”, ACCA “Francis Séverac”

Un cache-pitot se trouve à bord de chaque avion. Pensez à le mettre en place à la fin de chaque vol !

Avant de quitter l'avion, vérifiez que vous n'emportez pas la checklist

Un vol ne s'entreprend qu'avec un pare-brise parfaitement propre, il en va de votre sécurité, et de celle des autres

Après chaque vol, merci de mettre en place les pares-soleil!


Météo à Cannes:
METAR
LFMD 170100Z AUTO VRB06G17KT 9999 OVC045 14/04 Q1022 =
LFMD 161400Z 1615/1715 16005KT 9999 SCT060 BECMG 1616/1618 VRB02KT TEMPO 1621/1709 08015KT TEMPO 1709/1715 08020G30KT

TAF
LFMD 161400Z 1615/1715 16005KT 9999 SCT060 BECMG 1616/1618 VRB02KT TEMPO 1621/1709 08015KT TEMPO 1709/1715 08020G30KT =

SR / SS: 06:32 / 16:01 UTC (LFMD 2018-11-17)